Time,TemperatureF,DewpointF,PressureIn,WindDirection,WindDirectionDegrees,WindSpeedMPH,WindSpeedGustMPH,Humidity,HourlyPrecipIn,Conditions,Clouds,dailyrainin,SoftwareType,DateUTC
2013-03-25 05:08:00,21.2,17.4,30.40,South,184,5.0,5.0,85,0.00,,---,0.00,VWS V14.01,2013-03-25 10:08:00,
2013-03-25 05:13:00,21.6,17.5,30.40,SSE,160,13.0,15.0,84,0.00,,---,0.00,VWS V14.01,2013-03-25 10:13:00,
2013-03-25 05:18:00,22.0,17.6,30.40,South,184,7.0,16.0,83,0.00,,---,0.00,VWS V14.01,2013-03-25 10:18:00,
2013-03-25 05:23:00,22.2,17.8,30.40,South,169,9.0,16.0,83,0.00,,---,0.00,VWS V14.01,2013-03-25 10:23:00,
2013-03-25 05:28:00,22.4,17.8,30.40,SSE,154,7.0,16.0,82,0.00,,---,0.00,VWS V14.01,2013-03-25 10:28:00,
2013-03-25 05:33:00,22.5,17.9,30.40,South,186,5.0,17.0,82,0.00,,---,0.00,VWS V14.01,2013-03-25 10:33:00,
2013-03-25 05:38:00,22.6,17.9,30.40,SSE,158,3.0,11.0,82,0.00,,---,0.00,VWS V14.01,2013-03-25 10:38:00,
2013-03-25 05:43:00,22.7,17.8,30.40,SSE,149,3.0,11.0,81,0.00,,---,0.00,VWS V14.01,2013-03-25 10:43:00,
2013-03-25 05:48:00,22.8,17.3,30.40,South,173,6.0,18.0,79,0.00,,---,0.00,VWS V14.01,2013-03-25 10:48:00,
2013-03-25 05:53:00,22.8,17.0,30.40,South,180,6.0,18.0,78,0.00,,---,0.00,VWS V14.01,2013-03-25 10:53:00,
2013-03-25 05:58:00,22.8,17.0,30.40,SSE,162,4.0,18.0,78,0.00,,---,0.00,VWS V14.01,2013-03-25 10:58:00,
2013-03-25 06:03:00,22.8,17.3,30.40,South,173,4.0,18.0,79,0.00,,---,0.00,VWS V14.01,2013-03-25 11:03:00,
2013-03-25 06:08:00,22.7,16.6,30.41,South,171,3.0,15.0,77,0.00,,---,0.00,VWS V14.01,2013-03-25 11:08:00,
2013-03-25 06:13:00,22.5,16.4,30.41,South,172,11.0,15.0,77,0.00,,---,0.00,VWS V14.01,2013-03-25 11:13:00,
2013-03-25 06:18:00,22.3,16.5,30.41,South,170,4.0,15.0,78,0.00,,---,0.00,VWS V14.01,2013-03-25 11:18:00,
2013-03-25 06:23:00,22.0,16.2,30.41,SSW,200,10.0,15.0,78,0.00,,---,0.00,VWS V14.01,2013-03-25 11:23:00,
2013-03-25 06:28:00,21.9,16.1,30.41,South,173,4.0,15.0,78,0.00,,---,0.00,VWS V14.01,2013-03-25 11:28:00,
2013-03-25 06:33:00,21.8,16.0,30.41,South,184,4.0,15.0,78,0.00,,---,0.00,VWS V14.01,2013-03-25 11:33:00,
2013-03-25 06:38:00,21.8,16.0,30.41,SE,142,6.0,8.0,78,0.00,,---,0.00,VWS V14.01,2013-03-25 11:38:00,
2013-03-25 06:43:00,21.8,16.3,30.41,South,191,5.0,10.0,79,0.00,,---,0.00,VWS V14.01,2013-03-25 11:43:00,
2013-03-25 06:48:00,21.8,16.3,30.42,SSE,163,3.0,15.0,79,0.00,,---,0.00,VWS V14.01,2013-03-25 11:48:00,
2013-03-25 06:53:00,21.8,16.3,30.41,South,184,4.0,15.0,79,0.00,,---,0.00,VWS V14.01,2013-03-25 11:53:00,
2013-03-25 06:58:00,21.7,16.2,30.42,South,172,5.0,15.0,79,0.00,,---,0.00,VWS V14.01,2013-03-25 11:58:00,
2013-03-25 07:03:00,21.6,16.1,30.42,South,169,4.0,16.0,79,0.00,,---,0.00,VWS V14.01,2013-03-25 12:03:00,
2013-03-25 07:08:00,21.5,16.3,30.42,SSE,164,4.0,8.0,80,0.00,,---,0.00,VWS V14.01,2013-03-25 12:08:00,
2013-03-25 07:13:00,21.3,16.1,30.42,South,173,5.0,11.0,80,0.00,,---,0.00,VWS V14.01,2013-03-25 12:13:00,
2013-03-25 07:18:00,21.2,16.0,30.42,SSW,206,10.0,12.0,80,0.00,,---,0.00,VWS V14.01,2013-03-25 12:18:00,
2013-03-25 07:23:00,21.2,16.3,30.42,SE,143,5.0,12.0,81,0.00,,---,0.00,VWS V14.01,2013-03-25 12:23:00,
2013-03-25 07:28:00,21.1,16.2,30.43,WSW,239,1.0,12.0,81,0.00,,---,0.00,VWS V14.01,2013-03-25 12:28:00,
2013-03-25 07:33:00,21.1,16.5,30.43,SSE,148,4.0,12.0,82,0.00,,---,0.00,VWS V14.01,2013-03-25 12:33:00,
2013-03-25 07:38:00,21.2,16.6,30.43,South,180,2.0,12.0,82,0.00,,---,0.00,VWS V14.01,2013-03-25 12:38:00,
2013-03-25 07:43:00,21.2,16.6,30.43,South,170,2.0,12.0,82,0.00,,---,0.00,VWS V14.01,2013-03-25 12:43:00,
2013-03-25 07:48:00,21.3,16.7,30.43,SSW,200,8.0,12.0,82,0.00,,---,0.00,VWS V14.01,2013-03-25 12:48:00,
2013-03-25 07:53:00,21.5,16.9,30.43,SSE,168,8.0,15.0,82,0.00,,---,0.00,VWS V14.01,2013-03-25 12:53:00,
2013-03-25 07:58:00,21.6,17.0,30.43,SSW,194,6.0,15.0,82,0.00,,---,0.00,VWS V14.01,2013-03-25 12:58:00,
2013-03-25 08:03:00,21.6,17.0,30.43,South,177,4.0,15.0,82,0.00,,---,0.00,VWS V14.01,2013-03-25 13:03:00,
2013-03-25 08:08:00,21.6,17.0,30.44,SSW,197,6.0,11.0,82,0.00,,---,0.00,VWS V14.01,2013-03-25 13:08:00,
2013-03-25 08:13:00,21.6,17.0,30.44,SE,139,10.0,13.0,82,0.00,,---,0.00,VWS V14.01,2013-03-25 13:13:00,
2013-03-25 08:18:00,21.7,17.1,30.44,SSW,208,6.0,13.0,82,0.00,,---,0.00,VWS V14.01,2013-03-25 13:18:00,
2013-03-25 08:23:00,21.8,17.2,30.44,SSE,153,6.0,13.0,82,0.00,,---,0.00,VWS V14.01,2013-03-25 13:23:00,
2013-03-25 08:28:00,22.0,17.1,30.44,South,180,5.0,13.0,81,0.00,,---,0.00,VWS V14.01,2013-03-25 13:28:00,
2013-03-25 08:33:00,22.2,17.3,30.44,SSE,154,3.0,15.0,81,0.00,,---,0.00,VWS V14.01,2013-03-25 13:33:00,
2013-03-25 08:38:00,22.4,17.2,30.44,ESE,123,5.0,14.0,80,0.00,,---,0.00,VWS V14.01,2013-03-25 13:38:00,
2013-03-25 08:43:00,22.6,17.4,30.44,South,184,6.0,17.0,80,0.00,,---,0.00,VWS V14.01,2013-03-25 13:43:00,
2013-03-25 08:48:00,22.7,17.2,30.44,SSW,204,10.0,19.0,79,0.00,,---,0.00,VWS V14.01,2013-03-25 13:48:00,
2013-03-25 08:53:00,22.9,17.4,30.44,South,187,10.0,19.0,79,0.00,,---,0.00,VWS V14.01,2013-03-25 13:53:00,
2013-03-25 08:58:00,23.0,17.2,30.45,South,180,12.0,19.0,78,0.00,,---,0.00,VWS V14.01,2013-03-25 13:58:00,
2013-03-25 09:03:00,23.1,17.3,30.45,SSW,201,8.0,20.0,78,0.00,,---,0.00,VWS V14.01,2013-03-25 14:03:00,
2013-03-25 09:08:00,23.3,17.2,30.45,South,180,8.0,17.0,77,0.00,,---,0.00,VWS V14.01,2013-03-25 14:08:00,
2013-03-25 09:13:00,23.4,17.0,30.45,SW,218,13.0,19.0,76,0.00,,---,0.00,VWS V14.01,2013-03-25 14:13:00,
2013-03-25 09:18:00,23.4,16.7,30.46,SE,124,12.0,24.0,75,0.00,,---,0.00,VWS V14.01,2013-03-25 14:18:00,
2013-03-25 09:23:00,23.4,16.4,30.45,South,170,17.0,24.0,74,0.00,,---,0.00,VWS V14.01,2013-03-25 14:23:00,
2013-03-25 09:28:00,23.5,16.1,30.46,South,179,4.0,25.0,73,0.00,,---,0.00,VWS V14.01,2013-03-25 14:28:00,
2013-03-25 09:33:00,23.6,16.2,30.46,South,182,8.0,26.0,73,0.00,,---,0.00,VWS V14.01,2013-03-25 14:33:00,
2013-03-25 09:38:00,23.9,16.5,30.46,South,180,9.0,18.0,73,0.00,,---,0.00,VWS V14.01,2013-03-25 14:38:00,
2013-03-25 09:43:00,24.2,16.5,30.46,SW,227,6.0,18.0,72,0.00,,---,0.00,VWS V14.01,2013-03-25 14:43:00,
2013-03-25 09:48:00,24.3,15.9,30.46,South,184,7.0,19.0,70,0.00,,---,0.00,VWS V14.01,2013-03-25 14:48:00,
2013-03-25 09:53:00,24.3,15.6,30.46,South,177,14.0,20.0,69,0.00,,---,0.00,VWS V14.01,2013-03-25 14:53:00,
2013-03-25 09:58:00,24.4,15.7,30.46,SSW,196,9.0,21.0,69,0.00,,---,0.00,VWS V14.01,2013-03-25 14:58:00,
2013-03-25 10:03:00,24.6,15.2,30.46,West,262,9.0,21.0,67,0.00,,---,0.00,VWS V14.01,2013-03-25 15:03:00,
2013-03-25 10:08:00,24.9,15.2,30.46,SSW,196,13.0,16.0,66,0.00,,---,0.00,VWS V14.01,2013-03-25 15:08:00,
2013-03-25 10:13:00,25.2,15.1,30.46,South,172,15.0,16.0,65,0.00,,---,0.00,VWS V14.01,2013-03-25 15:13:00,
2013-03-25 10:18:00,25.4,14.6,30.46,South,186,7.0,18.0,63,0.00,,---,0.00,VWS V14.01,2013-03-25 15:18:00,
2013-03-25 10:23:00,25.7,15.9,30.47,SSW,207,10.0,21.0,66,0.00,,---,0.00,VWS V14.01,2013-03-25 15:23:00,
2013-03-25 10:28:00,25.1,16.7,30.47,SSW,203,7.0,21.0,70,0.00,,---,0.00,VWS V14.01,2013-03-25 15:28:00,
2013-03-25 10:33:00,24.8,16.1,30.47,South,173,19.0,21.0,69,0.00,,---,0.00,VWS V14.01,2013-03-25 15:33:00,
2013-03-25 10:38:00,24.8,15.4,30.47,South,175,13.0,19.0,67,0.00,,---,0.00,VWS V14.01,2013-03-25 15:38:00,
2013-03-25 10:43:00,25.1,15.4,30.47,SSW,194,8.0,19.0,66,0.00,,---,0.00,VWS V14.01,2013-03-25 15:43:00,
2013-03-25 10:48:00,25.4,15.3,30.48,South,180,9.0,23.0,65,0.00,,---,0.00,VWS V14.01,2013-03-25 15:48:00,
2013-03-25 10:53:00,25.4,14.9,30.47,SSW,199,7.0,23.0,64,0.00,,---,0.00,VWS V14.01,2013-03-25 15:53:00,
2013-03-25 10:58:00,25.5,15.4,30.48,West,264,15.0,23.0,65,0.00,,---,0.00,VWS V14.01,2013-03-25 15:58:00,
2013-03-25 11:03:00,25.7,14.9,30.48,SW,217,14.0,23.0,63,0.00,,---,0.00,VWS V14.01,2013-03-25 16:03:00,
2013-03-25 11:08:00,26.0,15.5,30.48,SSE,166,11.0,16.0,64,0.00,,---,0.00,VWS V14.01,2013-03-25 16:08:00,
2013-03-25 11:13:00,25.6,14.8,30.48,SSE,166,5.0,19.0,63,0.00,,---,0.00,VWS V14.01,2013-03-25 16:13:00,
2013-03-25 11:18:00,25.8,14.6,30.48,South,184,15.0,19.0,62,0.00,,---,0.00,VWS V14.01,2013-03-25 16:18:00,
2013-03-25 11:23:00,25.7,14.1,30.48,SSE,150,11.0,20.0,61,0.00,,---,0.00,VWS V14.01,2013-03-25 16:23:00,
2013-03-25 11:28:00,25.9,14.3,30.48,South,171,11.0,20.0,61,0.00,,---,0.00,VWS V14.01,2013-03-25 16:28:00,
2013-03-25 11:33:00,25.7,14.1,30.48,South,185,6.0,23.0,61,0.00,,---,0.00,VWS V14.01,2013-03-25 16:33:00,
2013-03-25 11:38:00,26.2,14.6,30.49,SSE,159,16.0,19.0,61,0.00,,---,0.00,VWS V14.01,2013-03-25 16:38:00,
2013-03-25 11:43:00,26.1,14.5,30.49,SE,146,7.0,19.0,61,0.00,,---,0.00,VWS V14.01,2013-03-25 16:43:00,
2013-03-25 11:48:00,26.2,14.6,30.49,SSW,199,9.0,19.0,61,0.00,,---,0.00,VWS V14.01,2013-03-25 16:48:00,
2013-03-25 11:53:00,25.9,13.9,30.49,SSE,166,6.0,21.0,60,0.00,,---,0.00,VWS V14.01,2013-03-25 16:53:00,
2013-03-25 11:58:00,26.0,14.4,30.49,SSE,162,11.0,21.0,61,0.00,,---,0.00,VWS V14.01,2013-03-25 16:58:00,
2013-03-25 12:03:00,26.0,14.0,30.49,South,187,24.0,24.0,60,0.00,,---,0.00,VWS V14.01,2013-03-25 17:03:00,
2013-03-25 12:08:00,26.0,14.0,30.49,South,190,11.0,18.0,60,0.00,,---,0.00,VWS V14.01,2013-03-25 17:08:00,
2013-03-25 12:13:00,26.5,14.5,30.49,South,170,7.0,18.0,60,0.00,,---,0.00,VWS V14.01,2013-03-25 17:13:00,
2013-03-25 12:18:00,26.3,14.3,30.49,South,171,10.0,18.0,60,0.00,,---,0.00,VWS V14.01,2013-03-25 17:18:00,
2013-03-25 12:23:00,25.8,14.2,30.49,SSE,152,6.0,18.0,61,0.00,,---,0.00,VWS V14.01,2013-03-25 17:23:00,
2013-03-25 12:28:00,26.1,14.5,30.50,SSW,206,10.0,18.0,61,0.00,,---,0.00,VWS V14.01,2013-03-25 17:28:00,
2013-03-25 12:33:00,26.0,14.0,30.50,SSW,196,10.0,19.0,60,0.00,,---,0.00,VWS V14.01,2013-03-25 17:33:00,
2013-03-25 12:38:00,25.9,13.9,30.49,South,180,11.0,20.0,60,0.00,,---,0.00,VWS V14.01,2013-03-25 17:38:00,
2013-03-25 12:43:00,26.1,14.5,30.50,SSE,157,10.0,20.0,61,0.00,,---,0.00,VWS V14.01,2013-03-25 17:43:00,
2013-03-25 12:48:00,25.8,14.2,30.50,South,180,5.0,20.0,61,0.00,,---,0.00,VWS V14.01,2013-03-25 17:48:00,
2013-03-25 12:53:00,25.8,14.6,30.49,South,184,12.0,20.0,62,0.00,,---,0.00,VWS V14.01,2013-03-25 17:53:00,
2013-03-25 12:58:00,25.7,14.1,30.49,SW,225,8.0,20.0,61,0.00,,---,0.00,VWS V14.01,2013-03-25 17:58:00,
2013-03-25 13:03:00,25.8,14.6,30.50,SSW,199,8.0,20.0,62,0.00,,---,0.00,VWS V14.01,2013-03-25 18:03:00,
2013-03-25 13:08:00,26.1,15.2,30.50,SW,218,8.0,11.0,63,0.00,,---,0.00,VWS V14.01,2013-03-25 18:08:00,
2013-03-25 13:13:00,26.2,15.0,30.50,South,183,7.0,16.0,62,0.00,,---,0.00,VWS V14.01,2013-03-25 18:13:00,
2013-03-25 13:18:00,26.1,14.9,30.49,WSW,239,8.0,16.0,62,0.00,,---,0.00,VWS V14.01,2013-03-25 18:18:00,
2013-03-25 13:23:00,26.1,14.9,30.50,SW,225,4.0,16.0,62,0.00,,---,0.00,VWS V14.01,2013-03-25 18:23:00,
2013-03-25 13:28:00,26.2,15.0,30.49,South,178,8.0,16.0,62,0.00,,---,0.00,VWS V14.01,2013-03-25 18:28:00,
2013-03-25 13:33:00,25.9,15.1,30.50,SSW,194,4.0,16.0,63,0.00,,---,0.00,VWS V14.01,2013-03-25 18:33:00,
2013-03-25 13:38:00,26.2,15.7,30.50,South,170,11.0,13.0,64,0.00,,---,0.00,VWS V14.01,2013-03-25 18:38:00,
2013-03-25 13:43:00,26.5,15.3,30.50,South,186,7.0,15.0,62,0.00,,---,0.00,VWS V14.01,2013-03-25 18:43:00,
2013-03-25 13:48:00,26.3,15.4,30.50,South,184,6.0,15.0,63,0.00,,---,0.00,VWS V14.01,2013-03-25 18:48:00,
2013-03-25 13:53:00,26.7,16.5,30.50,SSW,208,7.0,15.0,65,0.00,,---,0.00,VWS V14.01,2013-03-25 18:53:00,
2013-03-25 13:58:00,26.5,14.9,30.50,SSW,207,8.0,21.0,61,0.00,,---,0.00,VWS V14.01,2013-03-25 18:58:00,
2013-03-25 14:03:00,26.7,15.8,30.50,SSW,194,6.0,21.0,63,0.00,,---,0.00,VWS V14.01,2013-03-25 19:03:00,
2013-03-25 14:08:00,26.7,15.8,30.49,South,171,5.0,11.0,63,0.00,,---,0.00,VWS V14.01,2013-03-25 19:08:00,
2013-03-25 14:13:00,26.7,15.8,30.49,South,173,11.0,17.0,63,0.00,,---,0.00,VWS V14.01,2013-03-25 19:13:00,
2013-03-25 14:18:00,26.7,15.8,30.49,SE,133,4.0,17.0,63,0.00,,---,0.00,VWS V14.01,2013-03-25 19:18:00,
2013-03-25 14:23:00,27.0,16.1,30.49,SW,226,7.0,17.0,63,0.00,,---,0.00,VWS V14.01,2013-03-25 19:23:00,
2013-03-25 14:28:00,27.2,15.9,30.49,SSW,196,6.0,17.0,62,0.00,,---,0.00,VWS V14.01,2013-03-25 19:28:00,
2013-03-25 14:33:00,27.6,16.3,30.49,SSW,199,5.0,17.0,62,0.00,,---,0.00,VWS V14.01,2013-03-25 19:33:00,
2013-03-25 14:38:00,27.7,16.0,30.49,SSW,196,8.0,13.0,61,0.00,,---,0.00,VWS V14.01,2013-03-25 19:38:00,
2013-03-25 14:43:00,27.5,15.1,30.49,SSW,193,11.0,20.0,59,0.00,,---,0.00,VWS V14.01,2013-03-25 19:43:00,
2013-03-25 14:48:00,27.3,15.6,30.49,WSW,244,10.0,20.0,61,0.00,,---,0.00,VWS V14.01,2013-03-25 19:48:00,
2013-03-25 14:53:00,27.7,15.3,30.49,SSW,197,8.0,20.0,59,0.00,,---,0.00,VWS V14.01,2013-03-25 19:53:00,
2013-03-25 14:58:00,27.8,15.4,30.49,South,189,5.0,20.0,59,0.00,,---,0.00,VWS V14.01,2013-03-25 19:58:00,
2013-03-25 15:03:00,27.7,15.3,30.49,SSW,198,7.0,20.0,59,0.00,,---,0.00,VWS V14.01,2013-03-25 20:03:00,
2013-03-25 15:08:00,27.7,15.3,30.49,South,182,5.0,15.0,59,0.00,,---,0.00,VWS V14.01,2013-03-25 20:08:00,
2013-03-25 15:13:00,27.6,15.2,30.49,South,177,6.0,15.0,59,0.00,,---,0.00,VWS V14.01,2013-03-25 20:13:00,
2013-03-25 15:18:00,27.5,14.7,30.49,SSE,166,16.0,16.0,58,0.00,,---,0.00,VWS V14.01,2013-03-25 20:18:00,
2013-03-25 15:23:00,27.4,15.4,30.49,South,182,6.0,17.0,60,0.00,,---,0.00,VWS V14.01,2013-03-25 20:23:00,
2013-03-25 15:28:00,27.4,15.4,30.49,South,173,10.0,17.0,60,0.00,,---,0.00,VWS V14.01,2013-03-25 20:28:00,
2013-03-25 15:33:00,27.1,15.1,30.49,South,173,9.0,18.0,60,0.00,,---,0.00,VWS V14.01,2013-03-25 20:33:00,
2013-03-25 15:38:00,27.2,15.2,30.49,SSW,196,7.0,13.0,60,0.00,,---,0.00,VWS V14.01,2013-03-25 20:38:00,
2013-03-25 15:43:00,27.1,15.4,30.49,SSE,166,5.0,13.0,61,0.00,,---,0.00,VWS V14.01,2013-03-25 20:43:00,
2013-03-25 15:48:00,27.2,15.6,30.49,South,180,9.0,13.0,61,0.00,,---,0.00,VWS V14.01,2013-03-25 20:48:00,
2013-03-25 15:53:00,27.1,15.8,30.49,SSW,194,6.0,13.0,62,0.00,,---,0.00,VWS V14.01,2013-03-25 20:53:00,
2013-03-25 15:58:00,27.0,15.4,30.49,SW,231,7.0,15.0,61,0.00,,---,0.00,VWS V14.01,2013-03-25 20:58:00,
2013-03-25 16:03:00,26.9,15.3,30.49,SSW,213,8.0,15.0,61,0.00,,---,0.00,VWS V14.01,2013-03-25 21:03:00,
2013-03-25 16:08:00,27.0,15.4,30.49,South,185,4.0,15.0,61,0.00,,---,0.00,VWS V14.01,2013-03-25 21:08:00,
2013-03-25 16:13:00,27.3,15.6,30.49,South,184,9.0,15.0,61,0.00,,---,0.00,VWS V14.01,2013-03-25 21:13:00,
2013-03-25 16:18:00,27.0,15.7,30.49,South,177,5.0,15.0,62,0.00,,---,0.00,VWS V14.01,2013-03-25 21:18:00,
2013-03-25 16:23:00,27.3,16.0,30.49,South,190,3.0,15.0,62,0.00,,---,0.00,VWS V14.01,2013-03-25 21:23:00,
2013-03-25 16:28:00,27.4,15.7,30.49,SW,225,11.0,15.0,61,0.00,,---,0.00,VWS V14.01,2013-03-25 21:28:00,
2013-03-25 16:33:00,27.2,15.6,30.49,SW,214,7.0,15.0,61,0.00,,---,0.00,VWS V14.01,2013-03-25 21:33:00,
2013-03-25 16:38:00,27.1,15.8,30.49,SW,235,6.0,14.0,62,0.00,,---,0.00,VWS V14.01,2013-03-25 21:38:00,
2013-03-25 16:43:00,27.1,15.8,30.49,South,177,9.0,14.0,62,0.00,,---,0.00,VWS V14.01,2013-03-25 21:43:00,
2013-03-25 16:48:00,27.2,15.6,30.49,South,184,12.0,14.0,61,0.00,,---,0.00,VWS V14.01,2013-03-25 21:48:00,
2013-03-25 16:53:00,27.1,15.8,30.49,SW,222,5.0,14.0,62,0.00,,---,0.00,VWS V14.01,2013-03-25 21:53:00,
2013-03-25 16:58:00,27.1,15.8,30.49,South,178,7.0,14.0,62,0.00,,---,0.00,VWS V14.01,2013-03-25 21:58:00,
2013-03-25 17:03:00,27.0,15.7,30.49,WSW,239,6.0,14.0,62,0.00,,---,0.00,VWS V14.01,2013-03-25 22:03:00,
2013-03-25 17:08:00,26.9,15.6,30.49,South,170,5.0,17.0,62,0.00,,---,0.00,VWS V14.01,2013-03-25 22:08:00,
2013-03-25 17:13:00,26.8,15.9,30.49,SSW,204,10.0,17.0,63,0.00,,---,0.00,VWS V14.01,2013-03-25 22:13:00,
2013-03-25 17:18:00,26.7,16.2,30.49,South,182,7.0,17.0,64,0.00,,---,0.00,VWS V14.01,2013-03-25 22:18:00,
2013-03-25 17:23:00,26.7,15.8,30.49,SSW,193,5.0,17.0,63,0.00,,---,0.00,VWS V14.01,2013-03-25 22:23:00,
2013-03-25 17:28:00,26.5,15.6,30.49,SW,215,8.0,17.0,63,0.00,,---,0.00,VWS V14.01,2013-03-25 22:28:00,
2013-03-25 17:33:00,26.5,15.6,30.49,SW,221,7.0,17.0,63,0.00,,---,0.00,VWS V14.01,2013-03-25 22:33:00,
2013-03-25 17:38:00,26.4,15.2,30.49,South,187,5.0,19.0,62,0.00,,---,0.00,VWS V14.01,2013-03-25 22:38:00,
2013-03-25 17:43:00,26.4,14.8,30.49,South,176,7.0,19.0,61,0.00,,---,0.00,VWS V14.01,2013-03-25 22:43:00,
2013-03-25 17:48:00,26.4,15.2,30.49,South,187,8.0,19.0,62,0.00,,---,0.00,VWS V14.01,2013-03-25 22:48:00,
2013-03-25 17:53:00,26.5,14.5,30.49,SSW,207,5.0,19.0,60,0.00,,---,0.00,VWS V14.01,2013-03-25 22:53:00,
2013-03-25 17:58:00,26.5,14.1,30.49,South,190,5.0,19.0,59,0.00,,---,0.00,VWS V14.01,2013-03-25 22:58:00,
2013-03-25 18:03:00,26.3,14.7,30.49,WSW,241,6.0,19.0,61,0.00,,---,0.00,VWS V14.01,2013-03-25 23:03:00,
2013-03-25 18:08:00,26.2,14.6,30.49,South,180,6.0,12.0,61,0.00,,---,0.00,VWS V14.01,2013-03-25 23:08:00,
2013-03-25 18:13:00,26.1,14.5,30.49,South,185,4.0,12.0,61,0.00,,---,0.00,VWS V14.01,2013-03-25 23:13:00,
2013-03-25 18:18:00,26.1,14.5,30.50,SW,235,6.0,12.0,61,0.00,,---,0.00,VWS V14.01,2013-03-25 23:18:00,
2013-03-25 18:23:00,26.1,14.1,30.50,SSW,206,5.0,12.0,60,0.00,,---,0.00,VWS V14.01,2013-03-25 23:23:00,
2013-03-25 18:28:00,26.1,14.1,30.50,SSE,162,6.0,12.0,60,0.00,,---,0.00,VWS V14.01,2013-03-25 23:28:00,
2013-03-25 18:33:00,26.2,14.2,30.50,South,177,9.0,14.0,60,0.00,,---,0.00,VWS V14.01,2013-03-25 23:33:00,
2013-03-25 18:38:00,26.1,14.1,30.50,SSE,159,6.0,9.0,60,0.00,,---,0.00,VWS V14.01,2013-03-25 23:38:00,
2013-03-25 18:43:00,26.1,14.9,30.50,South,172,9.0,13.0,62,0.00,,---,0.00,VWS V14.01,2013-03-25 23:43:00,
2013-03-25 18:48:00,26.0,14.8,30.51,SSW,194,6.0,13.0,62,0.00,,---,0.00,VWS V14.01,2013-03-25 23:48:00,
2013-03-25 18:53:00,26.0,14.4,30.51,SSW,203,7.0,13.0,61,0.00,,---,0.00,VWS V14.01,2013-03-25 23:53:00,
2013-03-25 18:58:00,26.0,14.0,30.51,South,173,4.0,13.0,60,0.00,,---,0.00,VWS V14.01,2013-03-25 23:58:00,
2013-03-25 19:03:00,26.0,14.8,30.51,South,171,3.0,13.0,62,0.00,,---,0.00,VWS V14.01,2013-03-26 00:03:00,
2013-03-25 19:08:00,25.9,15.1,30.51,South,184,8.0,11.0,63,0.00,,---,0.00,VWS V14.01,2013-03-26 00:08:00,
2013-03-25 19:13:00,25.9,14.7,30.52,South,173,4.0,11.0,62,0.00,,---,0.00,VWS V14.01,2013-03-26 00:13:00,
2013-03-25 19:18:00,25.9,14.3,30.52,SSW,199,3.0,11.0,61,0.00,,---,0.00,VWS V14.01,2013-03-26 00:18:00,
2013-03-25 19:23:00,25.9,14.7,30.52,SSE,162,2.0,11.0,62,0.00,,---,0.00,VWS V14.01,2013-03-26 00:23:00,
2013-03-25 19:28:00,25.8,15.0,30.52,SSE,154,13.0,13.0,63,0.00,,---,0.00,VWS V14.01,2013-03-26 00:28:00,
2013-03-25 19:33:00,25.7,15.2,30.52,SW,234,6.0,13.0,64,0.00,,---,0.00,VWS V14.01,2013-03-26 00:33:00,
2013-03-25 19:38:00,25.5,15.0,30.52,SW,221,6.0,13.0,64,0.00,,---,0.00,VWS V14.01,2013-03-26 00:38:00,
2013-03-25 19:43:00,25.6,14.4,30.52,SSE,160,6.0,13.0,62,0.00,,---,0.00,VWS V14.01,2013-03-26 00:43:00,
2013-03-25 19:48:00,25.5,13.9,30.53,South,177,3.0,13.0,61,0.00,,---,0.00,VWS V14.01,2013-03-26 00:48:00,
2013-03-25 19:53:00,25.5,14.3,30.53,South,171,6.0,13.0,62,0.00,,---,0.00,VWS V14.01,2013-03-26 00:53:00,
2013-03-25 19:58:00,25.4,14.6,30.53,South,183,5.0,13.0,63,0.00,,---,0.00,VWS V14.01,2013-03-26 00:58:00,
2013-03-25 20:03:00,25.4,14.9,30.53,South,189,7.0,13.0,64,0.00,,---,0.00,VWS V14.01,2013-03-26 01:03:00,
2013-03-25 20:08:00,25.3,14.8,30.52,SSW,194,6.0,9.0,64,0.00,,---,0.00,VWS V14.01,2013-03-26 01:08:00,
2013-03-25 20:13:00,25.2,14.8,30.52,SSW,194,4.0,10.0,64,0.00,,---,0.00,VWS V14.01,2013-03-26 01:13:00,
2013-03-25 20:18:00,25.2,14.8,30.52,South,188,3.0,10.0,64,0.00,,---,0.00,VWS V14.01,2013-03-26 01:18:00,
2013-03-25 20:23:00,25.1,14.3,30.52,South,172,2.0,10.0,63,0.00,,---,0.00,VWS V14.01,2013-03-26 01:23:00,
2013-03-25 20:28:00,25.1,14.3,30.52,SSW,207,7.0,10.0,63,0.00,,---,0.00,VWS V14.01,2013-03-26 01:28:00,
2013-03-25 20:33:00,25.0,13.8,30.52,South,191,5.0,11.0,62,0.00,,---,0.00,VWS V14.01,2013-03-26 01:33:00,
2013-03-25 20:38:00,25.0,14.2,30.52,SSW,196,3.0,8.0,63,0.00,,---,0.00,VWS V14.01,2013-03-26 01:38:00,
2013-03-25 20:43:00,25.1,14.3,30.52,SSW,194,4.0,8.0,63,0.00,,---,0.00,VWS V14.01,2013-03-26 01:43:00,
2013-03-25 20:48:00,25.0,14.6,30.52,SSW,197,4.0,8.0,64,0.00,,---,0.00,VWS V14.01,2013-03-26 01:48:00,
2013-03-25 20:53:00,24.9,14.5,30.52,SSW,201,4.0,8.0,64,0.00,,---,0.00,VWS V14.01,2013-03-26 01:53:00,
2013-03-25 20:58:00,24.8,14.4,30.52,South,180,3.0,8.0,64,0.00,,---,0.00,VWS V14.01,2013-03-26 01:58:00,
2013-03-25 21:03:00,24.6,14.5,30.52,SW,227,4.0,8.0,65,0.00,,---,0.00,VWS V14.01,2013-03-26 02:03:00,
2013-03-25 21:08:00,24.4,14.3,30.52,SSW,196,5.0,8.0,65,0.00,,---,0.00,VWS V14.01,2013-03-26 02:08:00,
2013-03-25 21:13:00,24.3,14.2,30.52,South,172,2.0,8.0,65,0.00,,---,0.00,VWS V14.01,2013-03-26 02:13:00,
2013-03-25 21:18:00,24.1,14.4,30.53,South,180,3.0,8.0,66,0.00,,---,0.00,VWS V14.01,2013-03-26 02:18:00,
2013-03-25 21:23:00,24.0,14.3,30.53,SSW,201,2.0,8.0,66,0.00,,---,0.00,VWS V14.01,2013-03-26 02:23:00,
2013-03-25 21:28:00,23.9,14.2,30.53,South,184,5.0,8.0,66,0.00,,---,0.00,VWS V14.01,2013-03-26 02:28:00,
2013-03-25 21:33:00,23.9,14.6,30.53,SSW,194,2.0,8.0,67,0.00,,---,0.00,VWS V14.01,2013-03-26 02:33:00,
2013-03-25 21:38:00,23.8,14.5,30.53,South,182,4.0,6.0,67,0.00,,---,0.00,VWS V14.01,2013-03-26 02:38:00,
2013-03-25 21:43:00,23.7,14.4,30.53,SSW,197,2.0,6.0,67,0.00,,---,0.00,VWS V14.01,2013-03-26 02:43:00,
2013-03-25 21:48:00,23.5,14.5,30.54,South,177,1.0,6.0,68,0.00,,---,0.00,VWS V14.01,2013-03-26 02:48:00,
2013-03-25 21:53:00,23.4,14.4,30.54,SSW,197,2.0,6.0,68,0.00,,---,0.00,VWS V14.01,2013-03-26 02:53:00,
2013-03-25 21:58:00,23.2,14.6,30.54,SSW,200,2.0,6.0,69,0.00,,---,0.00,VWS V14.01,2013-03-26 02:58:00,
2013-03-25 22:03:00,22.9,14.6,30.54,South,173,1.0,6.0,70,0.00,,---,0.00,VWS V14.01,2013-03-26 03:03:00,
2013-03-25 22:08:00,22.7,14.4,30.54,South,180,1.0,3.0,70,0.00,,---,0.00,VWS V14.01,2013-03-26 03:08:00,
2013-03-25 22:13:00,22.5,14.5,30.54,South,180,2.0,3.0,71,0.00,,---,0.00,VWS V14.01,2013-03-26 03:13:00,
2013-03-25 22:18:00,22.4,14.4,30.54,South,179,1.0,3.0,71,0.00,,---,0.00,VWS V14.01,2013-03-26 03:18:00,
2013-03-25 22:23:00,22.3,14.7,30.54,South,175,1.0,3.0,72,0.00,,---,0.00,VWS V14.01,2013-03-26 03:23:00,
2013-03-25 22:28:00,22.1,14.5,30.54,South,173,0.0,3.0,72,0.00,,---,0.00,VWS V14.01,2013-03-26 03:28:00,
2013-03-25 22:33:00,22.0,14.4,30.54,South,170,2.0,3.0,72,0.00,,---,0.00,VWS V14.01,2013-03-26 03:33:00,
2013-03-25 22:38:00,21.9,14.3,30.54,South,170,2.0,2.0,72,0.00,,---,0.00,VWS V14.01,2013-03-26 03:38:00,
2013-03-25 22:43:00,21.9,14.3,30.54,South,184,2.0,4.0,72,0.00,,---,0.00,VWS V14.01,2013-03-26 03:43:00,
2013-03-25 22:48:00,21.8,14.2,30.54,South,170,4.0,4.0,72,0.00,,---,0.00,VWS V14.01,2013-03-26 03:48:00,
2013-03-25 22:53:00,21.7,14.1,30.54,South,184,1.0,4.0,72,0.00,,---,0.00,VWS V14.01,2013-03-26 03:53:00,
2013-03-25 22:58:00,21.7,13.8,30.54,South,180,1.0,4.0,71,0.00,,---,0.00,VWS V14.01,2013-03-26 03:58:00,
2013-03-25 23:00:00,21.6,13.7,30.54,South,177,1.0,4.0,71,0.00,,---,0.00,VWS V14.01,2013-03-26 04:00:00,
2013-03-25 23:05:00,21.5,13.9,30.54,South,176,0.0,2.0,72,0.00,,---,0.00,VWS V14.01,2013-03-26 04:05:00,
2013-03-25 23:10:00,21.3,13.7,30.54,South,170,1.0,3.0,72,0.00,,---,0.00,VWS V14.01,2013-03-26 04:10:00,
2013-03-25 23:15:00,21.2,13.9,30.54,South,170,1.0,3.0,73,0.00,,---,0.00,VWS V14.01,2013-03-26 04:15:00,
2013-03-25 23:20:00,21.2,13.9,30.54,South,172,2.0,3.0,73,0.00,,---,0.00,VWS V14.01,2013-03-26 04:20:00,
2013-03-25 23:25:00,21.1,13.8,30.54,South,172,0.0,3.0,73,0.00,,---,0.00,VWS V14.01,2013-03-26 04:25:00,
2013-03-25 23:30:00,21.0,14.0,30.54,South,172,0.0,3.0,74,0.00,,---,0.00,VWS V14.01,2013-03-26 04:30:00,
2013-03-25 23:35:00,21.0,14.0,30.54,South,177,1.0,3.0,74,0.00,,---,0.00,VWS V14.01,2013-03-26 04:35:00,
2013-03-25 23:40:00,21.0,14.0,30.54,South,170,1.0,3.0,74,0.00,,---,0.00,VWS V14.01,2013-03-26 04:40:00,
2013-03-25 23:45:00,20.9,13.9,30.54,SSE,159,0.0,3.0,74,0.00,,---,0.00,VWS V14.01,2013-03-26 04:45:00,
2013-03-25 23:50:00,20.6,13.6,30.54,SSE,159,0.0,3.0,74,0.00,,---,0.00,VWS V14.01,2013-03-26 04:50:00,
2013-03-25 23:55:00,20.4,13.8,30.54,SSE,159,0.0,3.0,75,0.00,,---,0.00,VWS V14.01,2013-03-26 04:55:00,